Home   Weather   Belém   Past weeks

Flag for Brazil Past Weather in Belém, Pará, Brazil — Yesterday and Last 2 Weeks

Now
86 °F

Partly sunny.


Feels Like: 95 °F
Forecast: 74 / 90 °F
Wind: 13 mph from North

Location: Belem Aeroporto

Current Time: Aug 30, 2016 at 4:14:54 PM

Latest Report: Aug 30, 2016 at 3:00 PM


Visibility: N/A

Pressure: 29.86 "Hg

Humidity: 70%

Dew Point: 75 °F

Location of BelémLocation

Past Weather in Belém — Graph

°F

Belém Temperature Yesterday

Maximum temperature yesterday: 88 °F (at 1:00 PM)
Minimum temperature yesterday: 75 °F (at 4:00 AM)
Average temperature yesterday: 80 °F

High & Low Weather Summary for the Past Weeks

 TemperatureHumidityPressure
High91 °F (Aug 17, 1:00 PM)94% (Aug 17, 1:00 AM)30.01 "Hg (Aug 17, 1:00 AM)
Low73 °F (Aug 20, 6:00 AM)46% (Aug 17, 2:00 PM)29.80 "Hg (Aug 26, 3:00 PM)
Average80 °F80%29.90 "Hg
* Reported Aug 15 3:00 PM — Aug 30 3:00 PM, Belém, Weather by CustomWeather, © 2016

Note: Actual official high and low records may vary slightly from our data, if they occured in-between our weather recording intervals... More about our weather records

Advertising

Belém Weather History for the Previous 24 Hours

Scroll right to see more
 ConditionsComfort  
Time TempWeatherWind HumidityBarometerVisibility
3:00 PM
Tue, Aug 30
86 °FPartly sunny.13 mph70%29.86 "HgN/A
2:00 PM86 °FScattered clouds.10 mph70%29.86 "HgN/A
1:00 PM88 °FPartly sunny.9 mph59%29.89 "HgN/A
12:00 PM86 °FPartly sunny.8 mph62%29.92 "HgN/A
11:00 AM86 °FPartly sunny.9 mph66%29.95 "HgN/A
10:00 AM84 °FScattered clouds.12 mph70%29.95 "HgN/A
9:00 AM82 °FScattered clouds.13 mph74%29.95 "HgN/A
8:00 AM79 °FSunny.8 mph84%29.95 "Hg10 mi
7:00 AM75 °FSunny.2 mph89%29.92 "Hg10 mi
6:00 AM75 °FClear.2 mph89%29.89 "Hg10 mi
5:00 AM75 °FClear.3 mph89%29.89 "Hg10 mi
4:00 AM75 °FClear.6 mph94%29.89 "Hg10 mi
3:00 AM75 °FClear.5 mph94%29.89 "Hg10 mi
2:00 AM75 °FClear.6 mph94%29.92 "Hg10 mi
1:00 AM77 °FClear.9 mph89%29.92 "Hg10 mi
12:00 AM77 °FClear.8 mph89%29.95 "Hg10 mi
11:00 PM
Mon, Aug 29
79 °FPassing clouds.9 mph84%29.95 "HgN/A
10:00 PM79 °FPassing clouds.8 mph84%29.95 "HgN/A
9:00 PM79 °FPassing clouds.8 mph89%29.92 "HgN/A
8:00 PM81 °FPassing clouds.5 mph84%29.89 "HgN/A
7:00 PM81 °FPartly cloudy.8 mph84%29.86 "HgN/A
6:00 PM82 °FBroken clouds.14 mph79%29.86 "HgN/A
5:00 PM82 °FScattered clouds.12 mph79%29.83 "HgN/A
4:00 PM82 °FScattered showers. Partly sunny.12 mph79%29.83 "HgN/A
Weather by CustomWeather, © 2016

See weather overviewHow to use our weather pages